User: anonymous   Login
Location: Gamarra
(10.0780°N, 67.4929°W)
Time: 00:19:01
(UTC+00:00)
Language:

Cosmos 1954 Rocket - Orbit

View from above orbital plane
View from above orbital plane
View from above satellite
View from above satellite

Ground track
Ground track

The orbit data is extracted from the following two-line orbital elements,

1 19257U 88053B   24168.82219644  .00000407  00000-0  14243-3 0  9993
2 19257  74.0461 194.7323 0020012 175.8271 356.6908 14.38199223885878
Epoch (UTC): 16 June 2024 19:43:57
Eccentricity: 0.0020012
inclination: 74.0461°
perigee height: 750 km
apogee height: 779 km
right ascension of ascending node: 194.7323°
argument of perigee: 175.8271°
revolutions per day: 14.38199223
mean anomaly at epoch: 356.6908°
orbit number at epoch: 88587

The dashed part of the orbit path shows where the satellite is in the earth's shadow,  

DLR